Location: Marcé
(47.5801°N, 0.3280°W)
Time: 11:09:31
(UTC+01:00)

deb Explorer IX - Pass Details

Date: 06 December 2021
Orbit: 544 x 1082 km, 38.8° (Epoch: 17 January)

Event Time Altitude Azimuth Distance (km) Brightness Sun altitude
Rises 13:49:20 0° 259° (W) 2,864 ? 18.7°
Reaches altitude 10° 13:52:12 10° 242° (WSW) 1,892 ? 18.6°
Maximum altitude 13:55:18 20° 196° (SSW) 1,331 ? 18.5°
Drops below altitude 10° 13:58:18 10° 148° (SSE) 1,806 ? 18.3°
Sets 14:00:57 0° 131° (SE) 2,691 ? 18.2°
